Regional Weather Roundup
Issued by NWS Newport/Morehead, NC

Current Version | Previous Version | Graphics & Text | Print | Product List | Glossary Off
Versions: 1 2 3 4 5 6 7 8 9 10 11 12 13 14 15 16 17 18 19 20 21 22 23 24 25 26 27 28 29 30 31 32 33 34 35 36 37 38 39 40 41 42 43 44 45 46 47 48 49 50

000
ASUS42 KMHX 040513
RWRMHX
WEATHER ROUNDUP FOR EASTERN NORTH CAROLINA
NATIONAL WEATHER SERVICE NEWPORT/MOREHEAD CITY NC
100 AM EDT WED MAY 04 2016

NOTE: "FAIR" INDICATES FEW OR NO CLOUDS BELOW 12,000 FEET
WITH NO SIGNIFICANT WEATHER AND/OR OBSTRUCTIONS TO VISIBILITY

NCZ015>017-031-032-045>047-102-103-040600-
NORTH COAST

CITY           SKY/WX    TMP DP  RH WIND       PRES   REMARKS
EDENTON        LGT RAIN  67  67  99 SE3       29.71F
ELIZABETH CITY CLOUDY    62  59  90 SE6       29.71F
KITTY HAWK     CLEAR     66  62  89 CALM      29.72F
MANTEO         NOT AVBL

$$

NCZ045>047-081-094-103-104-040600-
CENTRAL COAST

CITY           SKY/WX    TMP DP  RH WIND       PRES   REMARKS
FRISCO         MOCLDY    70  69  97 W9        29.73F
SWANQUARTER    NOT AVBL

$$

NCZ095-097-098-100-101-040600-
SOUTHERN COAST

CITY           SKY/WX    TMP DP  RH WIND       PRES   REMARKS
BEAUFORT       CLOUDY    71  69  93 S5        29.74S
CEDAR ISLAND   NOT AVBL
JACKSONVILLE   CLOUDY    70  68  93 SW9       29.72S
PINEY ISLAND   NOT AVBL
WILMINGTON     CLOUDY    72  69  90 SW9       29.73F


$$

NCZ011>013-027>030-043-044-078>080-089-090>093-098-040600-
COASTAL PLAIN

CITY           SKY/WX    TMP DP  RH WIND       PRES   REMARKS
AHOSKIE        LGT RAIN  62  60  96 CALM      29.72F
CLINTON        CLOUDY    67  66  98 CALM      29.73F
ELIZABETHTOWN  CLOUDY    69  69  98 SW5       29.73F
GOLDSBORO      CLOUDY    64  64 100 SW3       29.71F
GREENVILLE     CLOUDY    64  63  94 S3        29.76S
HAVELOCK       MOCLDY    70  68  93 SW6       29.74F
KENANSVILLE    CLOUDY    65  63  93 CALM      29.74F
KINSTON        LGT RAIN  65  64  96 S5        29.74S
NEW BERN       CLOUDY    66  64  93 N5        29.76R
RICHLANDS      CLOUDY    69  68  96 SW5       29.74S
ROCKY MOUNT    CLOUDY    63  61  93 CALM      29.72F
WASHINGTON     LGT RAIN  64  62  93 SW3       29.74S
WHITEVILLE     NOT AVBL

$$

AMZ130-135-150-152-154-156-158-170-250-252-270-ANZ085-086-088-633-658-670-040600-
MARINE OBSERVATIONS

STATION/POSITION TIME  TEMP    WIND        PRES    WAVE   SWELL
                       AIR SEA DIR/SP/G            HT/PER HT/PER
                 (UTC) (F)     (DEG/KT/KT) (MB)    (FT/S) (FT/S)
CHESAPEAKE LIGHT 0400   61     100/  3/  3 1007.3
64 E VA BEACH    0450   59 54   40/ 10/ 12 1006.3    3/ 7   3/ 7
DUCK             NOT AVBL
2 E DUCK         0411      58                N/A     2/10
OREGON INLET     0400   70 71  210/ 15/ 19 1006.2
13E OREGON INLT  0500      62                N/A     4/ 7   3/ 7
HATTERAS CG      0400   71 70  240/  8/ 12 1007.1
DIAMOND BUOY     0450   72 72  240/ 10/ 12 1006.8    4/ 6   3/ 6
CAPE LOOKOUT     0500   70     210/  4/  6 1006.9
BEAUFORT LAB     0400   70 67   CALM  /  2 1006.3
30 SE NEW RVR IN 0425      71                N/A     5/ 7
27 SE WRIGHTSVLE 0408   73 72  220/ 14/ 17   N/A
5 SE WRIGHTSVLE  NOT AVBL
225 S CAPE HAT   0450   73 74  180/ 16/ 19 1010.9    5/ 6   2/ 8
41 SE CHARLESTON 0450   72 74  140/  2/  4 1008.5    4/ 5   3/ 5

$$




USA.gov is the U.S. government's official web portal to all federal, state and local government web resources and services.